CZ-6A DEB

Satellite information

Favourite Embed

Satellite Type and Status

DEBRISIN ORBIT

Key statistics

Satellite CZ-6A DEB at a glance.

Uptime

443

Days in orbit

Revolutions

≈ 14.2

Per day

Orbit

LEO

Low Earth Orbit

Inclination

89.0

Latest

Satellite identification and parameters

Extended collection of information and parameters for CZ-6A DEB.

Object identification

Identified? True

Debris? True

Object name: CZ-6A DEB

International designator: 2024-140RE

Object number (NORAD): 61160

Object ID (CCSDS): 61160

Country: PEOPLES REPUBLIC OF CHINA (PRC)

Current information (Y/N): Y

RCS size: SMALL

Orbital parameters

Period: 101.144 minutes

Inclination: 88.9818 deg

SMA: 7190.95 km

Apoapsis: 855.853 km

Periapsis: 769.777 km

RAAN: 303.375 deg

Eccentricy: 0.00598501

Argument of periapsis: 349.6757 deg

Mean anomaly: 10.3201 deg

Mean motion: 14.23715936 rev/day

Mean motion (dot): 0.00008438 rev/day2

B* drag term: 0.0036214294 1/REarth

Two-line elements (TLE)

Creation date: Sept. 27, 2025, 10:26 a.m.

Reference frame: TEME

Reference center: EARTH

Epoch: Sept. 27, 2025, 2:13 a.m. UTC

TLE line 0: 0 CZ-6A DEB

TLE line 1: 1 61160U 24140RE 25270.09289066 .00008438 00000-0 36214-2 0 9992

TLE line 2: 2 61160 88.9818 303.3750 0059850 349.6757 10.3201 14.23715936 56972

Live tracking on map

Real-time ground track for satellite CZ-6A DEB.

In-orbit conjunctions

A list of the most updated potential collisions computed for object CZ-6A DEB.

Target Orbit TCA Probability of collision Miss distance Type
SCOUT D-1 R/B SSO 2024-12-23 04:33:22 0.0001654869 690.0 (m) ROCKET BODY
NOAA 16 DEB SSO 2024-12-20 18:04:29 0.0001502718 102.0 (m) DEBRIS

Associated space launch

18 Low Earth Orbit communication satellites with Ku, Q and V band payloads for the G60 constellation operated by Shanghai Spacecom Satellite Technology (SSST) with funding backed by the Shanghai local government. Initial constellation will consist of 1296 satellites by 2027 with long term plans to expand it to 12000 satellites.

CZ-6A DEB was lifted into orbit during the mission ‘Long March 6A | G60 Polar Group 01’, on board a Long March 6A space rocket.

The launch took place on Aug. 6, 2024, 6:42 a.m. from Launch Complex 9A.

For more information about the launch, click the button.

Launch to space Long March 6A | G60 Polar Group 01
Long March 6A | G60 Polar Group 01

Agency: N/A

Status: Launch Successful

Launch date: Aug. 6, 2024, 6:42 a.m. UTC

Rocket: Long March 6A

Launch pad: Launch Complex 9A

Location: Taiyuan Satellite Launch Center, People's Republic of China

...

Latest news about this satellite

News about space launch
Brightness of first Chinese broadband constellation satellites alarms astronomers

The first satellites of a Chinese broadband constellation are significantly brighter than those of Western systems, posing a new challenge for astronomers.

News about space launch
Chinese rocket stage breaks up into cloud of more than 700 pieces of space debris

HELSINKI — A Chinese Long March 6A rocket’s upper stage has fragmented into a cloud of over 700 pieces of space debris, adding to concerns about long-term orbital safety. China […]

News about space launch
China's Thousand Sails Megaconstellation Kicks Off with Dangerous Debris Field

China's Thousand Sails Megaconstellation Kicks Off with Dangerous Debris Field


Newsletter sign-up

Weekly statistics, charts and insights to help you stay on top of the space industry.